Temp_Advection
nan nan nan nan nan nan nan nan nan nan nan nan nan nan nan nan nan nan nan nan nan nan nan nan nan nan nan nan nan nan nan nan nan nan nan nan nan nan nan nan nan nan nan
nan 0 0 0 0 0 -0 -0 0 -0 -0 -0 -0 0 0 -0 -0 -0 -0 0 0 -0 -0 -0 -0 -0 -0 -0 -0 -0 -0 0 1 0 -1 -1 -0 -0 -0 -0 0 0 nan
nan 0 0 0 0 0 -0 -0 0 0 0 -0 -0 -0 -0 -0 -0 -0 0 0 -0 -0 0 -0 0 -0 -0 -0 -0 0 -0 -0 -0 0 0 -1 -1 -1 -1 -1 -1 -1 nan
nan -1 -1 -1 -0 0 -0 0 0 0 0 0 -0 -0 -0 -0 -0 -0 -0 -0 0 0 0 -0 -0 -0 0 0 0 -0 0 0 -0 -0 0 -0 -1 -1 -1 -1 -1 -1 nan
nan -1 -1 -0 0 0 -0 -0 0 0 0 0 0 0 0 -0 -0 -0 -0 -0 -0 0 0 -0 -0 -0 0 0 0 0 0 0 0 -0 -0 -0 -0 0 -0 -0 -0 -1 nan
nan -0 -0 0 -0 -0 -0 -0 0 0 0 0 0 -0 -0 0 -0 -0 0 0 -0 0 -0 -0 0 0 0 0 0 -0 0 0 1 0 -0 -0 0 0 0 0 -0 -0 nan
nan -0 0 -0 -1 -0 0 -0 -1 -0 0 0 0 0 -0 -1 -0 0 -0 -0 -0 -0 -0 -0 0 -0 0 0 -0 0 0 0 0 -0 -0 -0 0 1 0 1 1 0 nan
nan -0 -0 -0 0 -0 -0 -1 -1 -0 -0 -0 0 0 -0 -0 -0 -0 1 1 -0 -1 -0 0 -0 -0 -0 0 0 0 -0 -0 0 0 -0 -0 -0 0 1 0 -0 0 nan
nan -0 -1 0 -0 -0 -0 -1 -0 -0 -1 -0 -0 -0 -0 -0 0 0 1 0 -0 -1 -1 -0 0 -0 -1 0 0 0 -0 -0 0 0 0 0 0 1 1 1 0 -0 nan
nan -0 -0 -1 -1 0 -1 -0 1 -0 -1 -0 -1 -0 -0 -0 -0 0 1 1 -0 -1 -1 -1 -1 -1 -0 1 1 0 -1 -1 0 0 0 0 1 0 0 0 1 0 nan
nan -0 -0 -0 -1 -0 -0 -0 0 -0 -0 -1 -2 -1 -0 -0 0 0 0 0 -0 -1 -0 -1 -2 -1 -0 0 0 0 -0 0 1 -0 -0 1 1 -0 -0 0 0 1 nan
nan -0 -0 -0 -0 -0 -0 -0 -0 -0 -0 -0 -1 -1 -1 -1 0 0 0 -0 0 0 -1 -1 -1 -1 -0 1 0 0 0 1 2 2 1 -0 0 -0 -1 -1 0 0 nan
nan -1 -1 -0 -0 -0 -0 -0 -0 -0 -1 -0 -2 -2 -0 1 -0 -0 0 0 1 -0 -1 -0 -0 -0 0 0 1 1 1 1 0 -0 -1 -1 0 0 -1 -1 0 0 nan
nan -2 -2 -1 -1 -1 -0 -0 -0 -0 -0 -1 0 1 -0 -1 -1 -1 -1 0 0 0 -0 0 1 1 0 0 0 1 1 -0 -1 -1 -0 0 -0 -1 -1 0 1 1 nan
nan -2 -1 -2 -2 -1 -1 -1 -1 -0 0 -0 0 0 -1 -1 -1 -0 -0 -1 -1 1 2 1 0 1 1 -0 1 1 -1 -2 -0 -0 1 0 -1 -1 -1 0 1 1 nan
nan -1 -2 -2 -2 -1 -2 -2 -1 -2 -0 -0 -1 -1 0 1 -1 -1 -1 -1 -0 2 2 -1 0 2 -1 -2 0 0 -0 0 -1 -0 0 -0 -0 0 1 0 -1 -0 nan
nan -0 -1 -2 -2 -2 -2 -3 -4 -2 -1 -0 -0 0 -1 -0 -0 -1 -1 0 0 2 2 -0 -0 -1 -1 0 0 0 -1 -2 1 2 0 -2 -1 1 1 1 1 -0 nan
nan -1 -1 -1 -1 -1 -1 -2 -2 -4 -6 -2 1 0 1 -1 -2 -1 1 2 1 0 -1 -0 -0 -0 0 -0 -1 1 -0 -2 1 2 -1 -2 0 1 0 0 0 1 nan
nan -1 -1 -1 -2 -2 -1 -1 -2 -2 -4 -4 -2 -1 0 -0 -1 -0 -1 -0 2 1 -0 -0 -0 -1 -1 -0 0 -0 -0 -0 0 1 0 -0 -0 -0 0 -0 -0 1 nan
nan -1 -1 -1 -2 -1 -1 -2 -2 -1 -3 -4 -0 -2 -3 -2 0 1 -0 -0 1 2 0 -1 0 -0 -0 0 0 -0 -0 -0 -0 -0 0 -0 -0 0 -0 -0 1 1 nan
nan -3 -1 -1 -1 -1 -1 -2 -2 -1 -2 -2 -1 -2 -1 -1 -1 1 -2 -2 0 1 1 -0 -0 -1 0 1 1 -0 -0 -0 -1 -0 0 1 1 -1 -1 1 1 1 nan
nan -2 -1 -0 -1 -2 -1 -1 -2 -1 -1 -2 -3 -2 -0 -2 -2 1 0 -0 -3 -1 2 0 0 0 0 0 0 0 -0 -0 0 -0 0 1 1 0 1 1 0 0 nan
nan -1 -2 -1 -1 -1 -2 -2 -2 -2 -2 -2 -1 -1 -2 -1 1 -0 -1 0 -2 -1 2 -1 -0 1 0 0 0 0 -0 -0 0 1 1 0 0 1 1 0 1 2 nan
nan -2 -2 -1 -1 -1 -1 -2 -2 -1 -1 -1 -1 -1 -2 -3 -0 -1 -0 1 0 1 -1 -2 -0 1 1 0 -0 -1 -0 0 1 1 0 1 1 1 2 1 1 0 nan
nan -1 -2 -2 -1 -1 -1 -2 -2 -1 -0 -0 -0 -1 -1 -1 -1 -0 -0 0 0 1 0 0 1 1 1 0 0 0 1 1 0 1 1 1 1 1 1 0 0 0 nan
nan nan nan nan nan nan nan nan nan nan nan nan nan nan nan nan nan nan nan nan nan nan nan nan nan nan nan nan nan nan nan nan nan nan nan nan nan nan nan nan nan nan nan
Wind_Speed
39 39 36 31 28 27 26 24 25 23 22 19 17 15 14 12 11 11 9 9 8 9 10 11 14 14 14 14 13 13 13 14 13 13 18 18 18 18 18 19 21 23 23
35 40 41 37 31 29 26 25 25 27 25 22 20 18 17 15 16 15 14 14 12 9 10 12 12 14 15 16 16 17 17 18 18 19 18 20 21 20 20 21 20 22 24
30 35 40 41 39 34 31 26 26 28 30 27 25 22 20 18 18 17 15 14 15 14 11 13 12 14 14 14 14 16 16 17 18 20 20 19 23 22 22 22 23 22 20
23 26 32 36 40 39 36 32 29 28 31 32 30 28 24 22 22 20 19 17 15 16 15 13 14 15 16 15 15 16 16 17 16 19 18 18 18 20 21 19 20 19 23
21 24 27 28 31 35 39 38 35 32 30 32 34 33 32 30 28 27 24 21 20 17 18 16 14 13 13 15 17 18 18 18 15 16 18 18 18 16 18 18 18 19 20
24 25 23 25 29 32 33 34 36 37 36 34 34 36 37 37 36 32 29 27 25 24 23 22 20 18 18 17 16 16 17 19 21 20 20 21 25 21 17 17 18 18 18
23 25 26 26 29 29 29 32 34 33 33 36 37 37 37 39 39 40 36 34 32 30 27 25 24 24 22 21 19 18 19 19 21 22 26 26 26 23 22 23 19 18 20
13 19 24 27 28 27 28 30 30 30 31 31 35 36 37 38 37 39 40 39 40 38 36 34 32 30 27 24 23 24 24 24 24 23 26 27 25 23 21 21 23 24 25
6 14 21 22 26 28 30 29 30 30 29 29 31 34 36 37 37 36 35 38 43 44 43 40 39 37 34 30 29 30 30 30 28 27 26 27 24 22 21 22 22 19 21
8 6 11 18 24 22 25 29 31 32 30 28 29 31 32 34 35 36 36 37 40 41 42 44 44 42 40 37 36 35 36 35 31 30 29 28 27 27 25 25 25 24 22
12 10 8 8 17 19 23 26 27 27 28 28 30 30 30 31 32 33 32 34 37 38 40 41 42 42 39 41 40 40 40 35 34 34 32 32 29 30 29 29 27 28 25
16 14 10 8 6 9 19 18 21 25 27 28 26 29 30 31 32 32 33 33 32 34 34 34 37 38 36 35 36 38 37 34 34 32 29 29 28 27 27 28 27 28 29
21 17 18 15 10 7 9 15 22 26 25 23 24 30 31 30 31 31 32 33 32 33 33 30 28 29 29 31 34 34 30 31 34 35 34 34 32 28 30 31 29 29 28
27 24 19 19 21 18 15 16 16 19 21 27 31 28 28 28 28 28 29 31 31 31 32 31 30 30 31 30 30 31 32 34 36 37 37 35 34 33 34 33 30 27 27
30 28 26 23 19 22 21 21 21 20 17 19 26 27 32 31 30 26 23 26 28 28 28 30 33 34 36 36 34 32 30 34 38 38 37 35 33 32 34 33 32 29 29
32 25 26 27 26 24 25 27 22 23 24 20 23 29 33 37 34 31 28 25 24 20 22 28 33 32 34 36 36 37 37 38 36 35 36 35 35 34 32 30 31 32 32
32 34 31 30 29 29 28 28 28 24 27 26 24 26 31 34 33 32 29 22 22 23 24 28 31 34 35 36 35 34 37 37 36 35 32 32 33 34 33 33 29 29 31
30 35 36 34 31 31 30 30 30 30 30 31 29 28 27 30 30 27 28 29 29 30 31 31 31 30 29 30 30 31 31 33 34 35 32 32 33 33 34 33 33 31 30
29 35 37 37 37 35 37 36 33 32 32 31 33 31 30 26 23 27 27 31 37 38 38 36 33 32 32 31 32 31 30 32 31 31 34 31 30 30 32 31 31 32 33
31 35 36 37 37 36 35 36 36 34 33 31 33 37 29 28 27 26 28 31 36 41 40 41 38 37 38 37 36 36 35 34 33 33 35 36 37 34 34 34 35 35 34
31 31 32 33 33 33 33 34 34 34 35 32 36 35 31 26 29 28 28 30 32 36 35 39 39 40 40 39 38 38 36 37 36 36 37 37 36 37 36 36 36 35 31
30 30 31 32 32 32 32 32 33 34 35 37 36 34 33 31 30 33 27 29 34 32 33 35 33 38 41 41 40 39 40 40 39 37 36 37 37 36 37 36 33 32 34
23 26 30 32 31 32 32 31 32 33 34 35 35 33 33 32 29 32 33 33 35 33 36 35 33 34 36 38 39 40 42 40 40 41 37 35 35 33 33 32 32 32 30
24 25 26 27 29 30 31 31 30 31 31 32 31 32 31 29 31 32 31 32 34 36 36 34 32 33 35 35 36 35 38 38 38 37 34 33 31 29 29 28 30 33 30
17 18 20 22 25 28 29 29 27 25 23 25 27 29 26 26 26 30 27 30 34 33 32 30 31 32 30 31 35 36 34 35 31 29 30 30 29 29 28 25 24 24 25
12 12 13 15 18 21 22 23 22 20 19 20 21 23 23 23 23 22 23 24 25 26 25 24 25 25 25 23 20 24 26 24 24 23 22 20 21 21 19 22 27 28 31
Wind_Direction
238 235 234 236 238 237 238 240 234 236 231 234 233 235 231 233 230 238 244 255 255 255 249 247 242 242 247 255 265 276 286 296 297 300 307 311 314 319 320 324 330 332 331
244 239 237 237 239 239 243 242 239 234 233 237 236 241 232 227 230 237 242 249 251 259 260 255 247 246 248 252 260 268 277 284 288 296 298 305 309 315 320 324 328 327 327
248 248 241 240 241 242 242 246 244 237 236 240 240 241 240 235 234 236 240 247 256 256 261 259 252 247 248 255 261 271 275 278 284 290 295 301 308 317 321 324 325 325 327
242 248 253 245 246 245 245 245 247 247 241 241 242 242 241 241 239 239 245 248 258 257 250 256 253 250 251 254 261 268 273 276 279 286 288 295 302 309 319 326 323 323 322
255 253 254 257 253 245 248 247 248 250 251 247 244 244 244 244 242 241 244 249 251 255 251 249 251 255 257 256 258 262 267 275 274 280 285 290 294 301 310 314 316 317 325
235 244 251 255 255 252 248 247 248 250 250 252 252 249 246 245 246 246 247 248 251 252 251 252 254 258 259 260 260 264 269 274 276 274 278 281 291 300 303 306 311 312 316
251 246 247 250 254 254 252 249 247 248 251 253 252 252 254 250 248 250 250 251 253 255 256 254 253 255 257 259 261 263 266 270 274 279 280 281 288 295 301 303 302 298 300
268 258 252 249 249 255 257 254 249 249 248 251 254 254 253 254 253 251 252 252 254 256 256 258 260 260 258 256 259 263 267 269 270 274 278 283 285 288 288 292 294 299 302
274 261 257 259 253 249 252 253 252 250 248 248 251 250 251 251 251 251 251 252 252 254 256 257 258 260 259 257 258 263 266 267 270 271 275 279 277 275 278 282 284 291 294
329 287 253 261 259 256 256 253 256 257 256 254 250 249 249 249 248 248 248 249 252 253 255 256 257 256 258 258 259 262 265 265 269 271 274 271 268 269 268 271 280 280 284
322 320 282 262 257 261 263 264 260 254 253 252 250 247 248 251 249 248 243 244 247 251 252 253 255 256 255 257 260 261 261 267 272 272 268 267 267 268 269 272 274 277 275
306 301 304 290 279 272 264 257 254 256 256 255 251 245 246 245 246 246 243 239 243 247 251 256 257 258 257 255 256 258 261 262 264 262 261 261 260 261 266 272 278 275 275
301 300 288 292 288 264 282 271 266 260 254 252 256 253 250 253 256 252 244 241 240 244 247 252 257 259 258 255 253 255 254 252 253 256 258 260 261 263 264 271 273 273 274
294 295 296 289 283 280 265 268 270 262 261 261 263 259 259 258 257 257 248 238 237 237 243 244 248 251 253 254 256 255 251 249 250 253 255 259 262 261 264 268 271 270 271
289 289 293 293 288 274 272 267 264 265 270 266 261 261 262 259 257 261 262 260 251 244 245 243 244 246 246 247 248 247 249 249 249 251 253 255 256 258 261 265 266 266 263
288 290 289 291 292 289 283 278 269 270 269 269 279 268 263 260 257 261 263 266 252 242 238 237 235 236 243 248 250 254 255 255 255 255 254 254 255 257 259 261 261 261 260
280 284 289 289 290 291 292 288 282 279 278 269 264 271 267 265 266 261 255 260 253 243 242 244 240 241 244 249 250 253 256 257 260 256 251 252 255 257 256 256 255 258 255
271 278 284 290 289 289 289 290 289 288 284 277 268 266 269 261 264 264 252 251 250 242 243 244 247 248 247 252 254 255 253 259 255 256 255 253 253 254 258 258 259 260 257
281 278 279 282 286 286 286 285 285 282 280 279 278 268 267 270 266 262 248 240 245 247 246 248 251 253 254 253 253 256 262 264 261 253 257 256 255 255 257 256 257 257 258
280 275 277 281 283 283 280 280 281 282 280 278 278 280 276 277 274 265 250 245 247 247 245 248 247 250 253 254 258 261 263 263 265 259 257 259 260 256 256 257 258 261 265
284 281 278 278 277 278 278 276 277 279 280 276 272 277 275 268 261 258 264 246 245 249 251 251 252 252 253 256 259 260 263 265 264 262 259 259 257 257 257 256 260 260 260
278 275 272 272 274 276 276 273 271 270 271 271 269 270 272 267 258 259 255 261 259 248 250 250 251 258 258 256 258 260 262 262 265 263 261 260 254 256 255 257 255 253 245
279 270 270 272 276 274 275 273 272 271 270 269 269 271 268 265 262 263 250 252 262 256 256 253 251 255 255 258 258 258 259 260 259 259 255 254 252 254 254 247 238 233 240
289 279 273 270 270 269 271 272 269 270 270 268 266 266 267 269 268 263 260 256 253 258 255 255 251 255 258 258 257 258 257 254 251 251 249 245 240 238 236 237 241 254 255
312 299 282 271 265 263 262 262 262 258 264 266 261 259 256 258 254 251 252 246 241 245 250 241 240 243 243 248 256 250 249 251 246 246 243 242 242 245 251 256 256 249 242
335 321 300 284 271 265 260 254 253 253 256 258 253 244 236 237 236 235 231 227 229 226 223 221 218 222 227 223 223 227 232 240 243 244 242 244 243 238 236 236 232 229 233
Height
1564 1569 1573 1577 1581 1584 1587 1589 1592 1596 1599 1601 1602 1604 1606 1608 1610 1611 1612 1613 1614 1614 1615 1617 1618 1620 1621 1622 1623 1623 1623 1623 1623 1622 1619 1618 1617 1616 1614 1612 1609 1606 1603
1558 1563 1567 1572 1576 1580 1582 1585 1588 1591 1595 1598 1599 1601 1602 1604 1607 1608 1610 1611 1612 1612 1613 1614 1615 1616 1617 1618 1619 1619 1620 1619 1619 1617 1617 1615 1614 1613 1611 1609 1606 1603 1600
1552 1556 1561 1566 1571 1575 1577 1581 1583 1586 1589 1593 1595 1597 1599 1601 1602 1605 1606 1608 1608 1609 1609 1610 1611 1612 1613 1615 1616 1616 1616 1616 1615 1614 1613 1612 1610 1609 1608 1605 1603 1601 1598
1549 1551 1553 1559 1564 1568 1572 1575 1578 1581 1584 1587 1589 1592 1595 1597 1599 1600 1602 1603 1604 1605 1606 1606 1607 1608 1609 1611 1611 1612 1612 1612 1612 1611 1610 1609 1608 1606 1604 1603 1601 1599 1595
1545 1547 1548 1551 1555 1560 1564 1568 1572 1575 1578 1581 1583 1586 1589 1592 1593 1595 1597 1599 1600 1601 1602 1602 1603 1604 1605 1606 1607 1608 1608 1608 1609 1609 1607 1606 1605 1605 1603 1600 1597 1594 1593
1537 1540 1543 1546 1548 1551 1556 1559 1563 1567 1570 1574 1576 1578 1580 1583 1586 1588 1591 1593 1594 1595 1596 1598 1598 1599 1600 1601 1602 1603 1604 1603 1603 1603 1603 1602 1599 1599 1600 1597 1594 1591 1589
1534 1533 1537 1540 1542 1544 1548 1551 1553 1557 1561 1564 1567 1570 1572 1574 1577 1580 1584 1586 1587 1588 1590 1591 1593 1593 1594 1595 1597 1597 1597 1597 1597 1597 1595 1595 1594 1595 1594 1591 1590 1588 1585
1530 1531 1531 1534 1535 1538 1540 1543 1546 1549 1551 1554 1557 1560 1562 1564 1567 1571 1575 1579 1579 1580 1581 1583 1585 1587 1588 1589 1590 1590 1590 1591 1591 1591 1590 1590 1590 1589 1589 1587 1585 1583 1580
1527 1528 1528 1529 1530 1532 1533 1535 1538 1540 1542 1545 1547 1549 1551 1554 1557 1561 1565 1567 1569 1569 1571 1572 1575 1577 1579 1582 1583 1582 1583 1582 1584 1584 1584 1583 1584 1584 1584 1582 1580 1580 1578
1525 1524 1523 1526 1525 1526 1528 1529 1531 1533 1535 1536 1537 1539 1541 1543 1546 1550 1554 1556 1557 1559 1560 1560 1562 1565 1568 1571 1573 1574 1573 1573 1576 1576 1576 1575 1576 1576 1577 1576 1576 1573 1573
1526 1524 1522 1520 1521 1520 1521 1524 1525 1526 1528 1528 1529 1531 1533 1535 1537 1539 1543 1544 1545 1548 1549 1549 1550 1552 1557 1559 1562 1563 1563 1567 1567 1566 1567 1567 1567 1567 1568 1568 1569 1568 1565
1524 1522 1521 1519 1516 1512 1517 1518 1519 1520 1521 1521 1522 1523 1523 1525 1527 1529 1532 1533 1536 1537 1538 1539 1540 1542 1545 1548 1550 1551 1554 1558 1557 1556 1556 1557 1558 1559 1560 1560 1560 1559 1558
1520 1518 1516 1513 1511 1513 1512 1514 1514 1515 1514 1514 1515 1515 1516 1517 1517 1518 1521 1523 1525 1527 1529 1530 1532 1534 1535 1537 1538 1541 1545 1546 1545 1545 1545 1546 1548 1550 1550 1551 1551 1550 1550
1516 1514 1512 1509 1508 1508 1508 1509 1510 1509 1507 1507 1507 1508 1509 1508 1509 1509 1509 1512 1515 1517 1519 1521 1522 1524 1525 1526 1528 1530 1532 1533 1534 1534 1535 1536 1537 1539 1539 1541 1541 1542 1540
1511 1510 1508 1507 1507 1506 1505 1506 1505 1504 1500 1498 1499 1500 1501 1500 1500 1502 1503 1504 1506 1509 1511 1512 1511 1511 1512 1513 1516 1518 1521 1522 1523 1524 1524 1525 1527 1528 1529 1531 1531 1532 1530
1505 1505 1504 1502 1500 1499 1499 1496 1494 1493 1494 1491 1490 1491 1490 1490 1493 1494 1495 1497 1499 1502 1503 1501 1499 1500 1501 1503 1506 1508 1510 1512 1514 1515 1515 1516 1517 1518 1519 1520 1520 1521 1521
1498 1497 1496 1496 1494 1492 1490 1488 1483 1483 1483 1485 1483 1483 1482 1481 1482 1483 1487 1489 1493 1496 1494 1493 1491 1491 1491 1494 1496 1499 1500 1501 1504 1505 1505 1506 1507 1508 1509 1510 1511 1511 1510
1491 1489 1488 1486 1485 1483 1482 1480 1477 1472 1472 1470 1473 1475 1475 1474 1469 1471 1477 1480 1481 1482 1482 1482 1482 1483 1484 1486 1488 1490 1491 1492 1493 1495 1496 1496 1496 1497 1498 1499 1501 1502 1502
1480 1480 1479 1477 1476 1475 1473 1471 1469 1466 1465 1461 1463 1463 1466 1463 1459 1464 1466 1469 1469 1471 1470 1471 1473 1474 1474 1476 1478 1480 1481 1481 1483 1485 1486 1487 1488 1488 1489 1490 1491 1492 1492
1470 1469 1469 1467 1465 1464 1464 1461 1458 1456 1454 1450 1452 1453 1451 1450 1449 1455 1458 1460 1461 1460 1459 1459 1461 1463 1464 1466 1468 1470 1471 1473 1473 1473 1475 1476 1477 1478 1478 1480 1480 1481 1481
1460 1458 1458 1456 1455 1454 1453 1450 1447 1444 1441 1440 1444 1444 1441 1443 1443 1447 1449 1448 1448 1452 1449 1448 1449 1452 1454 1456 1457 1459 1460 1461 1462 1463 1463 1465 1467 1468 1468 1469 1470 1470 1470
1449 1447 1446 1445 1444 1443 1442 1440 1438 1437 1436 1436 1435 1434 1434 1433 1430 1435 1437 1438 1439 1436 1439 1440 1437 1440 1443 1444 1446 1448 1449 1449 1451 1452 1452 1453 1455 1456 1457 1458 1460 1461 1463
1438 1436 1434 1433 1433 1431 1430 1429 1427 1426 1425 1424 1422 1422 1423 1420 1421 1424 1424 1426 1428 1424 1430 1430 1428 1431 1432 1433 1434 1436 1438 1438 1439 1441 1442 1444 1444 1445 1447 1447 1447 1449 1453
1430 1426 1424 1423 1423 1421 1420 1419 1418 1417 1414 1413 1412 1411 1412 1408 1411 1413 1411 1414 1417 1418 1420 1418 1417 1420 1422 1424 1424 1425 1427 1428 1428 1430 1432 1433 1434 1437 1438 1439 1441 1443 1442
1424 1419 1416 1414 1413 1413 1412 1410 1408 1407 1405 1403 1403 1403 1400 1402 1404 1405 1402 1404 1406 1409 1407 1407 1408 1409 1410 1413 1415 1416 1418 1419 1420 1422 1423 1424 1425 1427 1430 1433 1434 1435 1437
1421 1416 1412 1408 1405 1405 1404 1401 1399 1398 1397 1396 1394 1395 1393 1395 1394 1396 1395 1395 1397 1400 1399 1399 1398 1399 1402 1403 1408 1408 1409 1411 1413 1415 1416 1417 1420 1421 1424 1428 1428 1425 1430